Norfolk, NE

2:15 PM CDT on August 18, 2017 (GMT -0500)
Stefan Memorial

Weather History for KOFK - June, 2013

Change the Weather History Date:

Tuesday, June 4, 2013

  Actual Average Record
Temperature  
Mean Temperature 65 °F 67 °F  
Max Temperature 74 °F 78 °F 98 °F (1977)
Min Temperature 56 °F 55 °F 38 °F (1990)
Degree Days  
Heating Degree Days 0 2  
Month to date heating degree days 23 9  
Since 1 June heating degree days 23 9  
Since 1 July heating degree days 6790 6622  
Cooling Degree Days 0 4  
Month to date cooling degree days 0 14  
Year to date cooling degree days 64 75  
Since 1 June cooling degree days 0 14  
Growing Degree Days 15 (Base 50)    
Moisture  
Dew Point 56 °F    
Average Humidity 72    
Maximum Humidity 87    
Minimum Humidity 57    
Precipitation  
Precipitation 0.01 in 0.15 in 7.78 in (1940)
Month to date precipitation 0.01 0.59  
Year to date precipitation 11.43 10.29  
Snow  
Snow 0.00 in 0.00 in - ()
Month to date snowfall 0.0 0.0  
Since 1 July snowfall 27.3 30.5  
Snow Depth 0.00 in    
Sea Level Pressure  
Sea Level Pressure 29.91 in    
Wind  
Wind Speed 8 mph (NE)    
Max Wind Speed 21 mph    
Max Gust Speed 28 mph    
Visibility 10 miles    
Events Rain    
T = Trace of Precipitation, MM = Missing Value Source: NWS Daily Summary

Daily Weather History Graph

Daily Weather History Graph

Search for Another Location

Airport or City:

Trip Planner

Search our weather history database for the weather conditions in past years. The results will help you decide how hot, cold, wet, or windy it might be!

Date:

Astronomy

Jun. 04, 2013 Rise Set
Actual Time 5:55 AM CDT 9:01 PM CDT
Civil Twilight 5:21 AM CDT 9:35 PM CDT
Nautical Twilight 4:38 AM CDT 10:18 PM CDT
Astronomical Twilight 3:46 AM CDT 11:10 PM CDT
Moon 3:29 AM CDT (6/4) 5:28 PM CDT (6/4)
Length of Visible Light 16h 13m
Length of Day
15h 05m
Waning Crescent, 14% of the Moon is Illuminated
Jun 4
Waning Crescent
Jun 8
New
Jun 16
First Quarter
Jun 23
Full
Jun 29
Last Quarter

Hourly Weather History & Observations

Time (CDT) Temp. Dew Point Humidity Pressure Visibility Wind Dir Wind Speed Gust Speed Precip Events Conditions
12:56 AM 64.9 °F 53.1 °F 65% 29.85 in 10.0 mi SE 10.4 mph - N/A   Clear
1:56 AM 63.0 °F 53.1 °F 70% 29.86 in 10.0 mi ESE 6.9 mph - N/A   Scattered Clouds
2:56 AM 63.0 °F 53.1 °F 70% 29.83 in 10.0 mi ESE 13.8 mph - N/A   Partly Cloudy
3:56 AM 62.1 °F 54.0 °F 75% 29.81 in 10.0 mi SE 12.7 mph - N/A   Clear
4:56 AM 62.1 °F 54.0 °F 75% 29.82 in 10.0 mi SE 12.7 mph - N/A   Scattered Clouds
5:44 AM 60.8 °F 55.4 °F 82% 29.81 in 10.0 mi ESE 16.1 mph 27.6 mph N/A   Clear
5:56 AM 61.0 °F 55.0 °F 81% 29.81 in 10.0 mi East 6.9 mph - N/A   Clear
6:14 AM 60.8 °F 55.4 °F 82% 29.89 in 10.0 mi NW 6.9 mph - N/A   Mostly Cloudy
6:54 AM 60.8 °F 55.4 °F 82% 29.87 in 10.0 mi ESE 10.4 mph - N/A   Scattered Clouds
6:56 AM 61.0 °F 55.0 °F 81% 29.84 in 10.0 mi ESE 11.5 mph - N/A   Partly Cloudy
7:56 AM 62.1 °F 55.0 °F 78% 29.85 in 10.0 mi SE 10.4 mph - N/A   Clear
8:56 AM 64.9 °F 57.0 °F 75% 29.87 in 10.0 mi SE 4.6 mph - N/A   Clear
9:56 AM 66.9 °F 57.0 °F 70% 29.88 in 10.0 mi Variable 4.6 mph - 0.00 in   Overcast
10:32 AM 64.4 °F 59.0 °F 83% 29.93 in 5.0 mi West 3.5 mph - 0.01 in Rain Light Rain
10:56 AM 66.9 °F 59.0 °F 76% 29.91 in 10.0 mi Calm Calm - 0.01 in   Overcast
11:56 AM 69.1 °F 59.0 °F 70% 29.92 in 10.0 mi Variable 3.5 mph - N/A   Mostly Cloudy
12:56 PM 66.9 °F 59.0 °F 76% 29.92 in 10.0 mi NW 10.4 mph - N/A   Overcast
1:56 PM 68.0 °F 59.0 °F 73% 29.93 in 10.0 mi North 8.1 mph - N/A   Overcast
2:04 PM 69.8 °F 59.0 °F 68% 29.95 in 10.0 mi North 8.1 mph - N/A   Overcast
2:32 PM 69.8 °F 57.2 °F 64% 29.95 in 10.0 mi North 11.5 mph - N/A   Overcast
2:53 PM 71.6 °F 59.0 °F 64% 29.95 in 10.0 mi North 10.4 mph - N/A   Mostly Cloudy
2:56 PM 71.1 °F 57.9 °F 63% 29.93 in 10.0 mi NNE 9.2 mph - N/A   Mostly Cloudy
3:19 PM 69.8 °F 59.0 °F 68% 29.95 in 10.0 mi North 11.5 mph - N/A   Overcast
3:56 PM 71.1 °F 59.0 °F 66% 29.93 in 10.0 mi NNE 10.4 mph - N/A   Mostly Cloudy
4:11 PM 71.6 °F 59.0 °F 64% 29.95 in 10.0 mi North 9.2 mph - N/A   Scattered Clouds
4:56 PM 71.1 °F 59.0 °F 66% 29.93 in 10.0 mi NE 9.2 mph - N/A   Overcast
5:56 PM 72.0 °F 57.0 °F 59% 29.92 in 10.0 mi NE 10.4 mph - N/A   Scattered Clouds
6:56 PM 72.0 °F 55.0 °F 55% 29.93 in 10.0 mi NNE 11.5 mph - N/A   Overcast
7:56 PM 70.0 °F 55.9 °F 61% 29.96 in 10.0 mi ENE 6.9 mph - N/A   Scattered Clouds
8:56 PM 66.9 °F 57.0 °F 70% 29.98 in 10.0 mi NE 4.6 mph - N/A   Clear
9:56 PM 64.0 °F 57.0 °F 78% 29.99 in 10.0 mi East 3.5 mph - N/A   Clear
10:56 PM 57.0 °F 54.0 °F 89% 30.04 in 9.0 mi SW 3.5 mph - N/A   Clear
11:56 PM 59.0 °F 55.9 °F 90% 30.03 in 8.0 mi NW 3.5 mph - N/A   Clear